Zhongxing 1C

operational
NORAD ID: 41103 Int'l Des: 2015-073 Owner: ZZB Country: CN
HEOCIRCULAR

关于 Zhongxing 1C

正在加载描述...

实时位置

正在加载3D地球...

即将过境

高度历史

Altitude vs Time

uPlot chart will show altitude changes over time

两行轨道根数

1 41103U 15073A 26062.70792799 .00000067 00000-0 00000-0 0 9994
2 41103 6.8362 70.1842 0006330 193.1836 221.9779 0.99164135 37501
Epoch: Mar 3, 2026 • Age: 23 hours

当前状态

高度 36080.8 km
速度 3.06 km/s
星下点 3.81°N, 68.15°E
发射日期 Dec 9, 2015
运行时间 10.2 years
类型 other

技术详情

分类 Payload
质量 5000.00 kg
干质量 2500.00 kg
总质量 5000.00 kg
长度 5.00 m
直径 2.50 m
跨度 30.00 m
形状 Box + 2 Pan
制造商 CAST
平台类型 DFH-4
阶段状态 In Orbit
所有者/国家 ZZB/CN

大型星座

Loading constellations...